When you browse on this site, cookies collect data to enhance your experience and personalize the content and advertising you see.
Visit our Privacy Policy to learn more. By continuing to use the site, you agree to this use of cookies and data.
EN

Hourly Weather Homuty

Today, 18 September, Friday

Time Temperature Precipitation Wind Pressure Humidity
00:00 +20°C° 0 mm 1 mps 757 mmHg 49%
01:00 +20°C° 0 mm 1 mps 757 mmHg 50%
02:00 +20°C° 0 mm 1 mps 757 mmHg 51%
03:00 +19°C° 0 mm 1 mps 757 mmHg 54%
04:00 +19°C° 0 mm 1 mps 757 mmHg 55%
05:00 +19°C° 0 mm 1 mps 757 mmHg 56%
06:00 +19°C° 0 mm 1 mps 757 mmHg 58%
07:00 +20°C° 0 mm 2 mps 757 mmHg 54%
08:00 +22°C° 0 mm 3 mps 757 mmHg 50%
09:00 +26°C° 0 mm 3 mps 757 mmHg 47%
10:00 +27°C° 0 mm 4 mps 757 mmHg 45%
11:00 +29°C° 0 mm 4 mps 757 mmHg 43%
12:00 +32°C° 0 mm 5 mps 757 mmHg 41%
13:00 +32°C° 0 mm 5 mps 757 mmHg 39%
14:00 +32°C° 0 mm 5 mps 756 mmHg 37%
15:00 +32°C° 0 mm 5 mps 756 mmHg 33%
16:00 +29°C° 0 mm 5 mps 756 mmHg 40%
17:00 +27°C° 0 mm 5 mps 757 mmHg 47%
18:00 +25°C° 0 mm 5 mps 757 mmHg 53%
19:00 +22°C° 0 mm 5 mps 757 mmHg 61%
20:00 +21°C° 0 mm 4 mps 758 mmHg 68%
21:00 +19°C° 0 mm 4 mps 758 mmHg 76%
22:00 +19°C° 0 mm 3 mps 758 mmHg 71%
23:00 +18°C° 0 mm 3 mps 759 mmHg 66%

Tomorrow, 19 September, Saturday

Time Temperature Precipitation Wind Pressure Humidity
00:00 +18°C° 0 mm 3 mps 759 mmHg 62%
01:00 +17°C° 0 mm 3 mps 759 mmHg 61%
02:00 +16°C° 0 mm 3 mps 760 mmHg 61%
03:00 +14°C° 0 mm 3 mps 760 mmHg 61%
04:00 +14°C° 0 mm 2 mps 760 mmHg 63%
05:00 +14°C° 0 mm 2 mps 761 mmHg 66%
06:00 +13°C° 0 mm 1 mps 761 mmHg 69%
07:00 +14°C° 0 mm 2 mps 761 mmHg 62%
08:00 +16°C° 0 mm 3 mps 761 mmHg 55%
09:00 +18°C° 0 mm 3 mps 762 mmHg 47%
10:00 +19°C° 0 mm 4 mps 762 mmHg 45%
11:00 +20°C° 0 mm 4 mps 762 mmHg 43%
12:00 +21°C° 0 mm 5 mps 762 mmHg 41%
13:00 +20°C° 0 mm 5 mps 761 mmHg 41%
14:00 +20°C° 0 mm 5 mps 761 mmHg 42%
15:00 +20°C° 0 mm 5 mps 761 mmHg 43%
16:00 +20°C° 0 mm 4 mps 761 mmHg 45%
17:00 +19°C° 0 mm 3 mps 761 mmHg 47%
18:00 +18°C° 0 mm 2 mps 762 mmHg 49%
19:00 +17°C° 0 mm 2 mps 762 mmHg 54%
20:00 +16°C° 0 mm 2 mps 762 mmHg 59%
21:00 +14°C° 0 mm 2 mps 762 mmHg 63%
22:00 +14°C° 0 mm 2 mps 762 mmHg 65%
23:00 +14°C° 0 mm 1 mps 762 mmHg 68%

Day after tomorrow, 20 September, Sunday

Time Temperature Precipitation Wind Pressure Humidity
00:00 +13°C° 0 mm 1 mps 762 mmHg 70%
01:00 +13°C° 0 mm 1 mps 762 mmHg 71%
02:00 +13°C° 0 mm 1 mps 762 mmHg 73%
03:00 +11°C° 0 mm 0 mps 762 mmHg 74%
04:00 +12°C° 0 mm 1 mps 762 mmHg 75%
05:00 +12°C° 0 mm 1 mps 762 mmHg 76%
06:00 +12°C° 0 mm 1 mps 762 mmHg 77%
07:00 +14°C° 0 mm 1 mps 762 mmHg 68%
08:00 +16°C° 0 mm 1 mps 762 mmHg 59%
09:00 +19°C° 0 mm 1 mps 762 mmHg 50%
10:00 +21°C° 0 mm 1 mps 762 mmHg 45%
11:00 +22°C° 0 mm 1 mps 762 mmHg 40%
12:00 +24°C° 0 mm 2 mps 762 mmHg 35%
13:00 +25°C° 0 mm 2 mps 761 mmHg 33%
14:00 +25°C° 0 mm 2 mps 761 mmHg 32%
15:00 +26°C° 0 mm 2 mps 761 mmHg 30%
16:00 +25°C° 0 mm 3 mps 761 mmHg 33%
17:00 +24°C° 0 mm 3 mps 761 mmHg 35%
18:00 +22°C° 0 mm 3 mps 761 mmHg 38%
19:00 +20°C° 0 mm 3 mps 761 mmHg 37%
20:00 +18°C° 0 mm 3 mps 762 mmHg 37%
21:00 +17°C° 0 mm 3 mps 762 mmHg 36%
22:00 +16°C° 0 mm 2 mps 762 mmHg 37%
23:00 +15°C° 0 mm 2 mps 762 mmHg 39%

21 September, Monday

Time Temperature Precipitation Wind Pressure Humidity
00:00 +15°C° 0 mm 2 mps 762 mmHg 40%
01:00 +14°C° 0 mm 2 mps 762 mmHg 42%
02:00 +13°C° 0 mm 3 mps 762 mmHg 44%
03:00 +13°C° 0 mm 3 mps 762 mmHg 47%
04:00 +12°C° 0 mm 3 mps 762 mmHg 49%
05:00 +12°C° 0 mm 3 mps 762 mmHg 52%
06:00 +12°C° 0 mm 3 mps 762 mmHg 54%
07:00 +14°C° 0 mm 4 mps 762 mmHg 50%
08:00 +17°C° 0 mm 4 mps 762 mmHg 46%
09:00 +19°C° 0 mm 4 mps 762 mmHg 41%
10:00 +21°C° 0 mm 5 mps 762 mmHg 37%
11:00 +23°C° 0 mm 5 mps 762 mmHg 33%
12:00 +26°C° 0 mm 5 mps 762 mmHg 29%
13:00 +26°C° 0 mm 5 mps 762 mmHg 28%
14:00 +27°C° 0 mm 5 mps 761 mmHg 26%
15:00 +27°C° 0 mm 5 mps 761 mmHg 25%
16:00 +26°C° 0 mm 5 mps 761 mmHg 28%
17:00 +25°C° 0 mm 4 mps 760 mmHg 30%
18:00 +22°C° 0 mm 4 mps 760 mmHg 33%
19:00 +21°C° 0 mm 4 mps 760 mmHg 34%
20:00 +20°C° 0 mm 4 mps 761 mmHg 36%
21:00 +18°C° 0 mm 4 mps 761 mmHg 37%
22:00 +17°C° 0 mm 4 mps 761 mmHg 39%
23:00 +17°C° 0 mm 4 mps 761 mmHg 41%

22 September, Tuesday

Time Temperature Precipitation Wind Pressure Humidity
00:00 +15°C° 0 mm 4 mps 761 mmHg 43%
01:00 +14°C° 0 mm 3 mps 761 mmHg 46%
02:00 +13°C° 0 mm 3 mps 761 mmHg 49%
03:00 +13°C° 0 mm 3 mps 761 mmHg 51%
04:00 +12°C° 0 mm 3 mps 761 mmHg 54%
05:00 +13°C° 0 mm 2 mps 761 mmHg 58%
06:00 +12°C° 0 mm 2 mps 761 mmHg 61%
07:00 +13°C° 0 mm 3 mps 761 mmHg 58%
08:00 +16°C° 0 mm 3 mps 761 mmHg 55%
09:00 +18°C° 0 mm 4 mps 761 mmHg 53%
10:00 +21°C° 0 mm 4 mps 761 mmHg 49%
11:00 +23°C° 0 mm 5 mps 761 mmHg 45%
12:00 +26°C° 0 mm 5 mps 761 mmHg 41%
13:00 +27°C° 0 mm 5 mps 761 mmHg 39%
14:00 +28°C° 0 mm 6 mps 760 mmHg 37%
15:00 +29°C° 0 mm 6 mps 760 mmHg 35%
16:00 +27°C° 0 mm 5 mps 760 mmHg 37%
17:00 +26°C° 0 mm 5 mps 760 mmHg 39%
18:00 +25°C° 0 mm 4 mps 760 mmHg 41%
19:00 +23°C° 0 mm 5 mps 760 mmHg 43%
20:00 +22°C° 0 mm 5 mps 760 mmHg 44%
21:00 +20°C° 0 mm 5 mps 761 mmHg 46%
22:00 +20°C° 0 mm 5 mps 761 mmHg 50%
23:00 +19°C° 0 mm 4 mps 761 mmHg 54%

23 September, Wednesday

Time Temperature Precipitation Wind Pressure Humidity
00:00 +18°C° 0 mm 4 mps 761 mmHg 59%
01:00 +17°C° 0 mm 4 mps 760 mmHg 64%
02:00 +17°C° 0 mm 3 mps 760 mmHg 69%
03:00 +16°C° 0 mm 3 mps 760 mmHg 75%
04:00 +16°C° 0 mm 3 mps 760 mmHg 78%
05:00 +16°C° 0 mm 3 mps 760 mmHg 81%
06:00 +14°C° 0 mm 3 mps 760 mmHg 84%
07:00 +17°C° 0 mm 4 mps 760 mmHg 78%
08:00 +19°C° 0 mm 4 mps 760 mmHg 72%
09:00 +21°C° 0 mm 5 mps 760 mmHg 67%
10:00 +23°C° 0 mm 5 mps 760 mmHg 59%
11:00 +26°C° 0 mm 5 mps 760 mmHg 52%
12:00 +28°C° 0 mm 5 mps 759 mmHg 44%
13:00 +29°C° 0 mm 5 mps 759 mmHg 42%
14:00 +30°C° 0 mm 4 mps 759 mmHg 40%
15:00 +30°C° 0 mm 4 mps 758 mmHg 38%
16:00 +29°C° 0 mm 4 mps 758 mmHg 41%
17:00 +28°C° 0 mm 4 mps 758 mmHg 44%
18:00 +26°C° 0 mm 4 mps 758 mmHg 47%
19:00 +25°C° 0 mm 4 mps 758 mmHg 52%
20:00 +22°C° 0 mm 4 mps 758 mmHg 57%
21:00 +21°C° 0 mm 4 mps 758 mmHg 62%
22:00 +20°C° 0 mm 3 mps 758 mmHg 65%
23:00 +19°C° 0 mm 3 mps 758 mmHg 69%
Show more